Voltar ao catálogo

STARLINK-37217

AtivoComunicaçõesVLEO
NORAD 68335·PAYLOAD·🇺🇸 United States

Lançado Mar 22, 2026 de Cape Canaveral Space Force Station

Loading…

Próximas Passagens (próximas 24 horas)

TLE

AtualizadoSource: CelesTrak SupGP

Época: Sep 14, 2026, 23:19 UTC

1 68335C 26059Q   26257.97201389 -.00049945  00000+0 -14754-2 0  2570
2 68335  53.1578 179.9060 0001306  83.3350 304.1052 15.34421576    14

Acompanhe STARLINK-37217 em tempo real com AllMySat

Download on the App Store